| time (UTC) | temp F | wind direction | speed knots | gust knots | rain 1hr in | rain 24hr in | rain mn in | humidity % | barometer mb |
| 20260505140116 | 53 | 158 | 1.7 | 3.5 | 0.00 | 0.00 | 0.00 | 66 | 1017.1 |
| 20260505130116 | 53 | 180 | 0.9 | 1.7 | 0.00 | 0.00 | 0.00 | 65 | 1016.8 |
| 20260505124116 | 53 | 158 | 0.9 | 1.7 | 0.00 | 0.00 | 0.00 | 65 | 1016.9 |
| 20260505123116 | 53 | 0.0 | 0.9 | 0.00 | 0.00 | 0.00 | 65 | 1016.8 | |
| 20260505122116 | 53 | 0.0 | 0.9 | 0.00 | 0.00 | 0.00 | 66 | 1016.8 | |
| 20260505121116 | 53 | 0.0 | 0.9 | 0.00 | 0.00 | 0.00 | 66 | 1016.7 | |
| 20260505120136 | 53 | 180 | 0.9 | 1.7 | 0.00 | 0.00 | 0.00 | 66 | 1016.7 |
| 20260505115115 | 53 | 180 | 0.9 | 1.7 | 0.00 | 0.00 | 0.00 | 66 | 1016.6 |
| 20260505114116 | 53 | 180 | 0.9 | 1.7 | 0.00 | 0.00 | 0.00 | 66 | 1016.7 |
| 20260505113116 | 53 | 0.0 | 0.9 | 0.00 | 0.00 | 0.00 | 67 | 1016.6 | |
| 20260505112116 | 53 | 180 | 0.9 | 0.9 | 0.00 | 0.00 | 0.00 | 67 | 1016.6 |
| 20260505111116 | 53 | 315 | 0.9 | 1.7 | 0.00 | 0.00 | 0.00 | 68 | 1016.6 |
| 20260505110115 | 53 | 0.0 | 0.0 | 0.00 | 0.00 | 0.00 | 68 | 1016.5 | |
| 20260505102115 | 53 | 0.0 | 0.9 | 0.00 | 0.00 | 0.00 | 68 | 1016.2 | |
| 20260505101116 | 53 | 293 | 0.9 | 1.7 | 0.00 | 0.00 | 0.00 | 68 | 1016.2 |
| 20260505100115 | 53 | 293 | 1.7 | 2.6 | 0.00 | 0.00 | 0.00 | 68 | 1016.2 |
| 20260505095116 | 53 | 270 | 1.7 | 2.6 | 0.00 | 0.00 | 0.00 | 68 | 1016.1 |
| 20260505094115 | 53 | 270 | 0.9 | 1.7 | 0.00 | 0.00 | 0.00 | 68 | 1016.1 |
| 20260505093116 | 53 | 270 | 1.7 | 2.6 | 0.00 | 0.00 | 0.00 | 68 | 1016.0 |
| 20260505092116 | 53 | 270 | 1.7 | 2.6 | 0.00 | 0.00 | 0.00 | 67 | 1015.9 |
| 20260505091116 | 53 | 293 | 0.9 | 1.7 | 0.00 | 0.00 | 0.00 | 67 | 1015.7 |
| 20260505090136 | 53 | 293 | 0.9 | 1.7 | 0.00 | 0.00 | 0.00 | 67 | 1015.6 |
| 20260505085116 | 53 | 293 | 1.7 | 2.6 | 0.00 | 0.00 | 0.00 | 66 | 1015.6 |
| 20260505084115 | 53 | 315 | 1.7 | 3.5 | 0.00 | 0.00 | 0.00 | 66 | 1015.5 |
| 20260505083116 | 54 | 293 | 1.7 | 3.5 | 0.00 | 0.00 | 0.00 | 66 | 1015.6 |
| 20260505082115 | 54 | 315 | 2.6 | 3.5 | 0.00 | 0.00 | 0.00 | 65 | 1015.5 |
| 20260505081117 | 54 | 293 | 1.7 | 3.5 | 0.00 | 0.00 | 0.00 | 66 | 1015.4 |
| 20260505080116 | 54 | 293 | 2.6 | 3.5 | 0.00 | 0.00 | 0.00 | 66 | 1015.4 |
| 20260505075117 | 54 | 293 | 3.5 | 4.3 | 0.00 | 0.00 | 0.00 | 66 | 1015.4 |
| 20260505074117 | 54 | 293 | 1.7 | 3.5 | 0.00 | 0.00 | 0.00 | 65 | 1015.3 |
| 20260505073117 | 54 | 270 | 1.7 | 2.6 | 0.00 | 0.00 | 0.00 | 65 | 1015.0 |
| 20260505072118 | 55 | 293 | 2.6 | 3.5 | 0.00 | 0.00 | 0.00 | 64 | 1014.9 |
| 20260505071118 | 55 | 293 | 2.6 | 3.5 | 0.00 | 0.00 | 0.00 | 64 | 1014.8 |
| 20260505070137 | 56 | 293 | 2.6 | 3.5 | 0.00 | 0.00 | 0.00 | 63 | 1014.7 |
| 20260505065116 | 56 | 293 | 2.6 | 3.5 | 0.00 | 0.00 | 0.00 | 63 | 1014.5 |
| 20260505064116 | 57 | 293 | 1.7 | 3.5 | 0.00 | 0.00 | 0.00 | 62 | 1014.3 |
| 20260505063136 | 57 | 293 | 1.7 | 2.6 | 0.00 | 0.00 | 0.00 | 61 | 1014.3 |
| 20260505062156 | 58 | 315 | 1.7 | 2.6 | 0.00 | 0.00 | 0.00 | 61 | 1014.3 |
| 20260505061116 | 58 | 293 | 1.7 | 4.3 | 0.00 | 0.00 | 0.00 | 60 | 1014.1 |
| 20260505060136 | 59 | 315 | 1.7 | 4.3 | 0.00 | 0.00 | 0.00 | 59 | 1014.1 |
| 20260505055115 | 60 | 315 | 3.5 | 7.0 | 0.00 | 0.00 | 0.00 | 58 | 1014.0 |
| 20260505054116 | 61 | 315 | 2.6 | 3.5 | 0.00 | 0.00 | 0.00 | 57 | 1014.0 |
| 20260505053116 | 61 | 315 | 3.5 | 6.1 | 0.00 | 0.00 | 0.00 | 56 | 1014.1 |
| 20260505052115 | 62 | 315 | 4.3 | 7.0 | 0.00 | 0.00 | 0.00 | 55 | 1013.9 |
| 20260505051136 | 63 | 293 | 4.3 | 7.0 | 0.00 | 0.00 | 0.00 | 54 | 1013.9 |
| 20260505050136 | 63 | 315 | 3.5 | 6.1 | 0.00 | 0.00 | 0.00 | 53 | 1013.8 |
| 20260505041115 | 66 | 270 | 3.5 | 5.2 | 0.00 | 0.00 | 0.00 | 50 | 1013.3 |
| 20260505040116 | 67 | 270 | 1.7 | 2.6 | 0.00 | 0.00 | 0.00 | 54 | 1013.1 |
| 20260505035115 | 67 | 315 | 0.9 | 1.7 | 0.00 | 0.00 | 0.00 | 55 | 1012.9 |
| 20260505034115 | 67 | 338 | 1.7 | 2.6 | 0.00 | 0.00 | 0.00 | 55 | 1012.7 |
| 20260505033115 | 68 | 113 | 1.7 | 1.7 | 0.00 | 0.00 | 0.00 | 54 | 1012.5 |
| 20260505032116 | 68 | 203 | 0.9 | 1.7 | 0.00 | 0.00 | 0.00 | 53 | 1012.3 |
| 20260505031115 | 68 | 158 | 1.7 | 3.5 | 0.00 | 0.00 | 0.00 | 52 | 1012.3 |
| 20260505030115 | 69 | 180 | 0.9 | 1.7 | 0.00 | 0.00 | 0.00 | 51 | 1012.1 |
| 20260505025115 | 70 | 225 | 1.7 | 2.6 | 0.00 | 0.00 | 0.00 | 50 | 1012.1 |
| 20260505024156 | 70 | 203 | 0.9 | 5.2 | 0.00 | 0.00 | 0.00 | 49 | 1012.0 |
| 20260505023115 | 71 | 293 | 1.7 | 3.5 | 0.00 | 0.00 | 0.00 | 49 | 1012.1 |
| 20260505022118 | 71 | 180 | 0.9 | 1.7 | 0.00 | 0.00 | 0.00 | 48 | 1012.1 |
| 20260505021118 | 71 | 248 | 1.7 | 2.6 | 0.00 | 0.00 | 0.00 | 47 | 1012.1 |
| 20260505020138 | 72 | 225 | 1.7 | 3.5 | 0.00 | 0.00 | 0.00 | 47 | 1012.1 |
| 20260505015117 | 72 | 180 | 1.7 | 3.5 | 0.00 | 0.00 | 0.00 | 46 | 1012.2 |
| 20260505014117 | 73 | 135 | 2.6 | 4.3 | 0.00 | 0.00 | 0.00 | 45 | 1012.1 |
| 20260505013118 | 74 | 270 | 1.7 | 2.6 | 0.00 | 0.00 | 0.00 | 43 | 1012.3 |
| 20260505012117 | 74 | 248 | 1.7 | 3.5 | 0.00 | 0.00 | 0.00 | 42 | 1012.4 |
| 20260505011117 | 75 | 203 | 1.7 | 4.3 | 0.00 | 0.00 | 0.00 | 41 | 1012.6 |
| 20260505010117 | 75 | 270 | 2.6 | 5.2 | 0.00 | 0.00 | 0.00 | 40 | 1012.5 |
| 20260505005137 | 74 | 248 | 3.5 | 5.2 | 0.00 | 0.00 | 0.00 | 41 | 1012.6 |
| 20260505004117 | 74 | 158 | 2.6 | 4.3 | 0.00 | 0.00 | 0.00 | 41 | 1012.6 |
| 20260505003137 | 75 | 225 | 1.7 | 2.6 | 0.00 | 0.00 | 0.00 | 40 | 1012.6 |
| 20260505002117 | 75 | 180 | 1.7 | 2.6 | 0.00 | 0.00 | 0.00 | 39 | 1012.6 |
| 20260505001117 | 76 | 180 | 2.6 | 5.2 | 0.00 | 0.00 | 0.00 | 38 | 1012.7 |
| 20260505000138 | 75 | 315 | 1.7 | 3.5 | 0.00 | 0.00 | 0.00 | 40 | 1012.7 |
| 20260504235117 | 75 | 270 | 1.7 | 5.2 | 0.00 | 0.00 | 0.00 | 40 | 1012.8 |
| 20260504234117 | 74 | 248 | 2.6 | 4.3 | 0.00 | 0.00 | 0.00 | 41 | 1012.8 |
| 20260504233137 | 73 | 248 | 5.2 | 7.8 | 0.00 | 0.00 | 0.00 | 42 | 1012.8 |
| 20260504232117 | 74 | 225 | 3.5 | 4.3 | 0.00 | 0.00 | 0.00 | 40 | 1012.9 |
| 20260504231117 | 74 | 248 | 4.3 | 7.0 | 0.00 | 0.00 | 0.00 | 40 | 1013.0 |
| 20260504230137 | 74 | 248 | 6.1 | 8.7 | 0.00 | 0.00 | 0.00 | 40 | 1013.1 |
| 20260504225219 | 73 | 225 | 2.6 | 5.2 | 0.00 | 0.00 | 0.00 | 40 | 1013.2 |
| 20260504224117 | 73 | 158 | 1.7 | 3.5 | 0.00 | 0.00 | 0.00 | 41 | 1013.4 |
| 20260504223137 | 72 | 270 | 4.3 | 5.2 | 0.00 | 0.00 | 0.00 | 41 | 1013.4 |
| 20260504222117 | 72 | 270 | 5.2 | 7.8 | 0.00 | 0.00 | 0.00 | 43 | 1013.6 |
| 20260504221117 | 71 | 248 | 3.5 | 6.1 | 0.00 | 0.00 | 0.00 | 44 | 1013.7 |
| 20260504220117 | 71 | 270 | 2.6 | 3.5 | 0.00 | 0.00 | 0.00 | 45 | 1013.8 |
| 20260504215137 | 70 | 225 | 2.6 | 4.3 | 0.00 | 0.00 | 0.00 | 43 | 1013.8 |
| 20260504214117 | 70 | 248 | 3.5 | 6.1 | 0.00 | 0.00 | 0.00 | 44 | 1013.9 |
| 20260504213117 | 70 | 158 | 1.7 | 4.3 | 0.00 | 0.00 | 0.00 | 44 | 1014.0 |
| 20260504212117 | 69 | 248 | 3.5 | 6.1 | 0.00 | 0.00 | 0.00 | 45 | 1014.0 |
| 20260504211137 | 69 | 248 | 2.6 | 4.3 | 0.00 | 0.00 | 0.00 | 45 | 1014.1 |
| 20260504210116 | 69 | 158 | 2.6 | 3.5 | 0.00 | 0.00 | 0.00 | 46 | 1014.3 |
| 20260504205138 | 69 | 203 | 2.6 | 3.5 | 0.00 | 0.00 | 0.00 | 46 | 1014.4 |
| 20260504204137 | 68 | 135 | 2.6 | 4.3 | 0.00 | 0.00 | 0.00 | 47 | 1014.5 |
| 20260504203117 | 68 | 270 | 1.7 | 3.5 | 0.00 | 0.00 | 0.00 | 49 | 1014.6 |
| 20260504202117 | 67 | 0.0 | 0.9 | 0.00 | 0.00 | 0.00 | 50 | 1014.5 | |
| 20260504201117 | 67 | 248 | 0.9 | 1.7 | 0.00 | 0.00 | 0.00 | 49 | 1014.7 |
| 20260504200116 | 66 | 248 | 2.6 | 4.3 | 0.00 | 0.00 | 0.00 | 50 | 1014.8 |
| 20260504195116 | 66 | 203 | 0.9 | 1.7 | 0.00 | 0.00 | 0.00 | 49 | 1014.9 |
| 20260504194116 | 65 | 203 | 2.6 | 3.5 | 0.00 | 0.00 | 0.00 | 52 | 1014.9 |
| 20260504193117 | 64 | 203 | 1.7 | 3.5 | 0.00 | 0.00 | 0.00 | 52 | 1014.9 |
| 20260504192116 | 64 | 270 | 2.6 | 6.1 | 0.00 | 0.00 | 0.00 | 53 | 1015.0 |
| 20260504191138 | 64 | 248 | 3.5 | 7.0 | 0.00 | 0.00 | 0.00 | 53 | 1015.1 |
| 20260504190116 | 63 | 225 | 2.6 | 4.3 | 0.00 | 0.00 | 0.00 | 54 | 1015.1 |
| 20260504185117 | 61 | 225 | 1.7 | 2.6 | 0.00 | 0.00 | 0.00 | 57 | 1015.1 |
| 20260504184137 | 60 | 270 | 4.3 | 6.1 | 0.00 | 0.00 | 0.00 | 58 | 1015.3 |
| 20260504183117 | 59 | 113 | 2.6 | 3.5 | 0.00 | 0.00 | 0.00 | 57 | 1015.2 |
| 20260504182117 | 59 | 203 | 0.9 | 1.7 | 0.00 | 0.00 | 0.00 | 58 | 1015.2 |
| 20260504181116 | 58 | 248 | 3.5 | 6.1 | 0.00 | 0.00 | 0.00 | 59 | 1015.1 |
| 20260504180117 | 58 | 135 | 3.5 | 4.3 | 0.00 | 0.00 | 0.00 | 59 | 1015.3 |
| 20260504175116 | 57 | 180 | 0.9 | 1.7 | 0.00 | 0.00 | 0.00 | 59 | 1015.2 |
| 20260504174116 | 58 | 270 | 3.5 | 6.1 | 0.00 | 0.00 | 0.00 | 59 | 1015.2 |
| 20260504173137 | 58 | 158 | 1.7 | 2.6 | 0.00 | 0.00 | 0.00 | 60 | 1015.2 |
| 20260504172116 | 57 | 158 | 1.7 | 1.7 | 0.00 | 0.00 | 0.00 | 60 | 1015.1 |
| 20260504171137 | 57 | 135 | 1.7 | 4.3 | 0.00 | 0.00 | 0.00 | 61 | 1015.1 |
| 20260504170117 | 57 | 135 | 4.3 | 6.1 | 0.00 | 0.00 | 0.00 | 62 | 1015.1 |
| 20260504160116 | 56 | 158 | 1.7 | 1.7 | 0.00 | 0.00 | 0.00 | 62 | 1015.1 |
| 20260504151116 | 55 | 135 | 5.2 | 7.8 | 0.00 | 0.00 | 0.00 | 63 | 1014.8 |
| 20260504150116 | 55 | 135 | 3.5 | 4.3 | 0.00 | 0.00 | 0.00 | 63 | 1014.6 |